TimeMDT,TemperatureF,Dew PointF,Humidity,Sea Level PressureIn,VisibilityMPH,Wind Direction,Wind SpeedMPH,Gust SpeedMPH,PrecipitationIn,Events,Conditions,WindDirDegrees,DateUTC
12:15 AM,53.6,32.0,44,30.15,10.0,East,5.8,-,N/A,,Clear,90,2012-10-08 06:15:00
12:35 AM,57.2,33.8,41,30.15,10.0,ESE,4.6,-,N/A,,Clear,120,2012-10-08 06:35:00
12:55 AM,55.4,33.8,44,30.15,10.0,East,3.5,-,N/A,,Clear,90,2012-10-08 06:55:00
1:15 AM,50.0,32.0,50,30.15,10.0,Calm,Calm,-,N/A,,Clear,0,2012-10-08 07:15:00
1:35 AM,48.2,32.0,54,30.15,10.0,NNW,4.6,-,N/A,,Clear,340,2012-10-08 07:35:00
1:55 AM,46.4,32.0,57,30.16,10.0,NNW,5.8,-,N/A,,Clear,340,2012-10-08 07:55:00
2:15 AM,46.4,32.0,57,30.16,10.0,NNW,8.1,-,N/A,,Clear,340,2012-10-08 08:15:00
2:35 AM,48.2,32.0,54,30.16,10.0,North,9.2,-,N/A,,Clear,360,2012-10-08 08:35:00
2:55 AM,48.2,32.0,54,30.15,10.0,North,9.2,-,N/A,,Clear,350,2012-10-08 08:55:00
3:15 AM,50.0,32.0,50,30.15,10.0,North,8.1,-,N/A,,Clear,360,2012-10-08 09:15:00
3:35 AM,50.0,32.0,50,30.14,10.0,North,9.2,-,N/A,,Clear,350,2012-10-08 09:35:00
3:55 AM,50.0,32.0,50,30.14,10.0,North,9.2,-,N/A,,Clear,360,2012-10-08 09:55:00
4:15 AM,50.0,32.0,50,30.14,10.0,North,9.2,-,N/A,,Clear,360,2012-10-08 10:15:00
4:35 AM,50.0,32.0,50,30.14,10.0,North,10.4,-,N/A,,Clear,360,2012-10-08 10:35:00
4:55 AM,48.2,32.0,54,30.14,10.0,North,9.2,-,N/A,,Clear,360,2012-10-08 10:55:00
5:15 AM,48.2,32.0,54,30.15,10.0,North,8.1,-,N/A,,Clear,350,2012-10-08 11:15:00
5:35 AM,48.2,32.0,54,30.15,10.0,North,9.2,-,N/A,,Clear,360,2012-10-08 11:35:00
5:55 AM,48.2,32.0,54,30.15,10.0,North,9.2,-,N/A,,Clear,360,2012-10-08 11:55:00
6:15 AM,48.2,32.0,54,30.16,10.0,North,6.9,-,N/A,,Clear,350,2012-10-08 12:15:00
6:35 AM,46.4,32.0,57,30.16,10.0,North,8.1,-,N/A,,Clear,360,2012-10-08 12:35:00
6:55 AM,46.4,32.0,57,30.17,10.0,North,6.9,-,N/A,,Clear,360,2012-10-08 12:55:00
7:15 AM,46.4,32.0,57,30.18,10.0,North,6.9,-,N/A,,Clear,360,2012-10-08 13:15:00
7:35 AM,48.2,32.0,54,30.18,10.0,North,8.1,-,N/A,,Clear,360,2012-10-08 13:35:00
7:55 AM,50.0,33.8,54,30.19,10.0,North,8.1,-,N/A,,Clear,360,2012-10-08 13:55:00
8:15 AM,55.4,35.6,47,30.19,10.0,North,4.6,-,N/A,,Clear,10,2012-10-08 14:15:00
8:35 AM,57.2,35.6,44,30.20,10.0,NE,3.5,-,N/A,,Clear,40,2012-10-08 14:35:00
8:55 AM,60.8,35.6,39,30.20,10.0,North,3.5,-,N/A,,Clear,10,2012-10-08 14:55:00
9:15 AM,62.6,35.6,37,30.21,10.0,Calm,Calm,-,N/A,,Clear,0,2012-10-08 15:15:00
9:35 AM,64.4,35.6,34,30.21,10.0,SSE,3.5,-,N/A,,Clear,160,2012-10-08 15:35:00
9:55 AM,66.2,37.4,35,30.21,10.0,South,5.8,-,N/A,,Clear,170,2012-10-08 15:55:00
10:15 AM,66.2,37.4,35,30.21,10.0,SSE,5.8,-,N/A,,Clear,150,2012-10-08 16:15:00
10:35 AM,68.0,35.6,30,30.20,10.0,SE,6.9,-,N/A,,Clear,140,2012-10-08 16:35:00
10:55 AM,68.0,35.6,30,30.20,10.0,SSE,6.9,-,N/A,,Clear,160,2012-10-08 16:55:00
11:15 AM,69.8,35.6,28,30.20,10.0,South,6.9,-,N/A,,Clear,170,2012-10-08 17:15:00
11:35 AM,69.8,35.6,28,30.20,10.0,South,8.1,-,N/A,,Clear,180,2012-10-08 17:35:00
11:55 AM,71.6,35.6,27,30.19,10.0,South,3.5,-,N/A,,Clear,170,2012-10-08 17:55:00
12:15 PM,73.4,35.6,25,30.18,10.0,SSE,8.1,-,N/A,,Clear,150,2012-10-08 18:15:00
12:35 PM,73.4,35.6,25,30.17,10.0,South,10.4,-,N/A,,Clear,170,2012-10-08 18:35:00
12:55 PM,75.2,35.6,24,30.16,10.0,SSE,5.8,-,N/A,,Clear,160,2012-10-08 18:55:00
1:15 PM,75.2,32.0,21,30.15,10.0,West,3.5,-,N/A,,Clear,260,2012-10-08 19:15:00
1:35 PM,77.0,30.2,18,30.14,10.0,WSW,11.5,20.7,N/A,,Clear,240,2012-10-08 19:35:00
2:15 PM,77.0,28.4,17,30.12,10.0,WSW,13.8,21.9,N/A,,Clear,240,2012-10-08 20:15:00
2:35 PM,77.0,28.4,17,30.11,10.0,WSW,11.5,21.9,N/A,,Clear,240,2012-10-08 20:35:00
2:55 PM,78.8,28.4,16,30.10,10.0,West,10.4,16.1,N/A,,Clear,270,2012-10-08 20:55:00
3:15 PM,77.0,28.4,17,30.10,10.0,WNW,17.3,24.2,N/A,,Clear,290,2012-10-08 21:15:00
3:35 PM,78.8,28.4,16,30.10,10.0,West,12.7,23.0,N/A,,Clear,280,2012-10-08 21:35:00
3:55 PM,78.8,28.4,16,30.09,10.0,West,16.1,25.3,N/A,,Clear,270,2012-10-08 21:55:00
4:15 PM,78.8,28.4,16,30.09,10.0,West,17.3,26.5,N/A,,Clear,280,2012-10-08 22:15:00
4:35 PM,77.0,28.4,17,30.09,10.0,WNW,15.0,24.2,N/A,,Clear,290,2012-10-08 22:35:00
4:55 PM,77.0,28.4,17,30.09,10.0,West,13.8,21.9,N/A,,Clear,270,2012-10-08 22:55:00
5:15 PM,77.0,28.4,17,30.09,10.0,West,12.7,20.7,N/A,,Clear,260,2012-10-08 23:15:00
5:35 PM,77.0,28.4,17,30.09,10.0,WNW,19.6,-,N/A,,Clear,290,2012-10-08 23:35:00
5:55 PM,77.0,26.6,16,30.09,10.0,West,12.7,23.0,N/A,,Clear,270,2012-10-08 23:55:00
6:35 PM,73.4,28.4,19,30.10,10.0,WNW,12.7,-,N/A,,Clear,290,2012-10-09 00:35:00
6:55 PM,71.6,28.4,20,30.10,10.0,West,6.9,-,N/A,,Clear,280,2012-10-09 00:55:00
7:15 PM,68.0,28.4,23,30.10,10.0,WNW,6.9,-,N/A,,Clear,290,2012-10-09 01:15:00
8:15 PM,59.0,26.6,29,30.12,10.0,NNW,6.9,-,N/A,,Clear,340,2012-10-09 02:15:00
8:35 PM,57.2,26.6,31,30.12,10.0,NNW,5.8,-,N/A,,Clear,330,2012-10-09 02:35:00
8:55 PM,55.4,26.6,33,30.12,10.0,NNW,5.8,-,N/A,,Clear,330,2012-10-09 02:55:00
9:15 PM,55.4,26.6,33,30.13,10.0,NNW,8.1,-,N/A,,Clear,330,2012-10-09 03:15:00
9:55 PM,53.6,26.6,35,30.13,10.0,NNW,11.5,-,N/A,,Clear,330,2012-10-09 03:55:00
10:35 PM,55.4,26.6,33,30.14,10.0,North,9.2,-,N/A,,Clear,350,2012-10-09 04:35:00
10:55 PM,53.6,26.6,35,30.14,10.0,North,10.4,-,N/A,,Clear,350,2012-10-09 04:55:00
11:15 PM,53.6,26.6,35,30.14,10.0,NNW,10.4,-,N/A,,Clear,340,2012-10-09 05:15:00
11:35 PM,53.6,26.6,35,30.14,10.0,NNW,10.4,-,N/A,,Clear,340,2012-10-09 05:35:00
11:55 PM,55.4,28.4,36,30.13,10.0,NNW,11.5,-,N/A,,Clear,340,2012-10-09 05:55:00